FW9231 Weather Reports


time (UTC)temp
C
wind
direction
speed
KPH
gust
KPH
rain 1hr
cm
rain 24hr
cm
rain mn
cm
humidity
%
barometer
mb
20260508194747 22 214 0.0 0.0 0.00 0.00 0.00 40 1013.1
20260508194244 23 199 1.6 1.6 0.00 0.00 0.00 38 1013.3
20260508193741 22 208 0.0 0.0 0.00 0.00 0.00 41 1013.3
20260508193238 22 253 1.6 3.2 0.00 0.00 0.00 41 1013.5
20260508192734 22 218 0.0 1.6 0.00 0.00 0.00 39 1013.6
20260508192231 22 246 3.2 3.2 0.00 0.00 0.00 41 1013.7
20260508191728 22 228 0.0 1.6 0.00 0.00 0.00 43 1013.9
20260508191225 21 235 0.0 0.0 0.00 0.00 0.00 42 1013.8
20260508190722 21 218 0.0 0.0 0.00 0.00 0.00 42 1013.9
20260508190218 20 251 1.6 1.6 0.00 0.00 0.00 43 1013.8
20260508185715 21 228 0.0 1.6 0.00 0.00 0.00 43 1013.9
20260508185213 22 250 0.0 1.6 0.00 0.00 0.00 40 1014.3
20260508184710 21 230 0.0 1.6 0.00 0.00 0.00 41 1014.2
20260508184207 21 250 1.6 1.6 0.00 0.00 0.00 42 1014.1
20260508183704 21 218 0.0 0.0 0.00 0.00 0.00 42 1014.2
20260508183200 22 240 0.0 0.0 0.00 0.00 0.00 41 1014.3
20260508182655 22 223 0.0 1.6 0.00 0.00 0.00 45 1014.3
20260508182153 21 258 0.0 1.6 0.00 0.00 0.00 46 1014.9
20260508181649 21 208 0.0 1.6 0.00 0.00 0.00 41 1014.5
20260508181146 21 220 0.0 0.0 0.00 0.00 0.00 43 1014.7
20260508180642 20 209 1.6 1.6 0.00 0.00 0.00 44 1014.5
20260508180139 20 224 0.0 0.0 0.00 0.00 0.00 46 1014.5
20260508175636 22 262 3.2 3.2 0.00 0.00 0.00 42 1014.7
20260508175132 22 226 0.0 0.0 0.00 0.00 0.00 47 1014.9
20260508174630 21 221 0.0 0.0 0.00 0.00 0.00 47 1014.7
20260508174127 20 245 1.6 1.6 0.00 0.00 0.00 44 1014.8
20260508173624 20 318 1.6 3.2 0.00 0.00 0.00 45 1015.0
20260508173120 20 234 0.0 0.0 0.00 0.00 0.00 46 1015.3
20260508172617 20 209 1.6 1.6 0.00 0.00 0.00 49 1015.4
20260508172113 18 206 1.6 1.6 0.00 0.00 0.00 56 1015.2
20260508171610 18 233 0.0 0.0 0.00 0.00 0.00 49 1015.2
20260508171107 18 218 0.0 0.0 0.00 0.00 0.00 52 1015.4
20260508170604 18 209 0.0 0.0 0.00 0.00 0.00 58 1015.5
20260508165558 19 230 0.0 0.0 0.00 0.00 0.00 47 1015.6
20260508165055 19 234 0.0 0.0 0.00 0.00 0.00 48 1015.9
20260508164551 18 205 0.0 0.0 0.00 0.00 0.00 50 1015.9
20260508164048 18 204 0.0 0.0 0.00 0.00 0.00 50 1015.8
20260508163546 18 307 3.2 3.2 0.00 0.00 0.00 52 1016.0
20260508163042 18 226 3.2 3.2 0.00 0.00 0.00 49 1016.1
20260508162539 18 227 0.0 0.0 0.00 0.00 0.00 53 1016.0
20260508162037 17 275 3.2 3.2 0.00 0.00 0.00 51 1016.1
20260508161533 18 262 4.8 4.8 0.00 0.00 0.00 51 1016.3
20260508161030 17 239 1.6 1.6 0.00 0.00 0.00 54 1016.3
20260508160529 17 216 0.0 0.0 0.00 0.00 0.00 58 1016.3
20260508160026 17 232 1.6 3.2 0.00 0.00 0.00 55 1016.3
20260508155522 17 221 0.0 0.0 0.00 0.00 0.00 53 1016.5
20260508155020 17 226 0.0 1.6 0.00 0.00 0.00 56 1016.4
20260508154517 17 228 1.6 1.6 0.00 0.00 0.00 56 1016.6
20260508154013 17 277 3.2 3.2 0.00 0.00 0.00 57 1016.6
20260508153510 17 237 1.6 1.6 0.00 0.00 0.00 58 1016.6
20260508153007 17 244 1.6 3.2 0.00 0.00 0.00 56 1016.8
20260508152504 17 231 4.8 8.0 0.00 0.00 0.00 61 1016.5
20260508151959 17 226 0.0 1.6 0.00 0.00 0.00 59 1016.6
20260508151456 17 312 3.2 4.8 0.00 0.00 0.00 60 1016.7
20260508150953 16 200 1.6 3.2 0.00 0.00 0.00 58 1016.6
20260508150450 17 225 0.0 0.0 0.00 0.00 0.00 56 1016.4
20260508145945 16 223 0.0 0.0 0.00 0.00 0.00 56 1016.5
20260508145442 16 229 1.6 1.6 0.00 0.00 0.00 56 1016.7
20260508144939 16 281 4.8 4.8 0.00 0.00 0.00 58 1016.6
20260508144436 16 226 1.6 1.6 0.00 0.00 0.00 58 1016.7
20260508143934 16 260 4.8 8.0 0.00 0.00 0.00 60 1016.6
20260508143431 16 226 1.6 3.2 0.00 0.00 0.00 62 1016.7
20260508142927 16 229 0.0 0.0 0.00 0.00 0.00 64 1016.7
20260508142425 16 226 0.0 1.6 0.00 0.00 0.00 63 1016.8
20260508141921 16 245 1.6 3.2 0.00 0.00 0.00 62 1016.8
20260508141418 16 221 3.2 4.8 0.00 0.00 0.00 62 1016.7
20260508140915 16 239 1.6 3.2 0.00 0.00 0.00 66 1016.8
20260508140412 16 234 0.0 1.6 0.00 0.00 0.00 67 1016.8
20260508135908 15 240 3.2 4.8 0.00 0.00 0.00 72 1016.7
20260508135405 15 231 1.6 1.6 0.00 0.00 0.00 73 1016.8
20260508134901 15 262 4.8 4.8 0.00 0.00 0.00 72 1016.8
20260508134357 15 228 0.0 0.0 0.00 0.00 0.00 75 1016.7
20260508133854 15 232 3.2 4.8 0.00 0.00 0.00 75 1016.8
20260508133352 15 260 4.8 8.0 0.00 0.00 0.00 76 1016.6
20260508132849 15 233 1.6 3.2 0.00 0.00 0.00 77 1016.7
20260508132347 15 231 1.6 3.2 0.00 0.00 0.00 76 1016.6
20260508131843 14 230 0.0 0.0 0.00 0.00 0.00 80 1016.5
20260508131339 14 289 4.8 4.8 0.00 0.00 0.00 79 1016.4
20260508130836 14 235 1.6 1.6 0.00 0.00 0.00 81 1016.2
20260508130332 13 228 1.6 1.6 0.00 0.00 0.00 81 1016.3
20260508125829 13 226 1.6 3.2 0.00 0.00 0.00 82 1016.3
20260508125325 13 226 0.0 0.0 0.00 0.00 0.00 85 1016.6
20260508124823 13 228 1.6 1.6 0.00 0.00 0.00 84 1016.3
20260508124320 13 232 1.6 1.6 0.00 0.00 0.00 81 1016.3
20260508123818 13 231 1.6 1.6 0.00 0.00 0.00 82 1016.2
20260508123316 13 230 1.6 3.2 0.00 0.00 0.00 83 1016.1
20260508122812 13 238 1.6 1.6 0.00 0.00 0.00 84 1016.0
20260508122309 13 237 3.2 3.2 0.00 0.00 0.00 86 1016.1
20260508121806 12 223 0.0 0.0 0.00 0.00 0.00 89 1016.0
20260508121305 12 236 1.6 3.2 0.00 0.00 0.00 90 1016.2
20260508120802 12 234 1.6 3.2 0.00 0.00 0.00 91 1015.9
20260508120300 12 228 0.0 0.0 0.00 0.00 0.00 94 1015.7
20260508115757 12 230 0.0 1.6 0.00 0.00 0.00 95 1015.5
20260508115254 11 230 1.6 1.6 0.00 0.00 0.00 95 1015.7
20260508114750 11 230 1.6 1.6 0.00 0.00 0.00 96 1015.5
20260508114247 11 230 0.0 0.0 0.00 0.00 0.00 97 1015.4
20260508113744 11 230 0.0 0.0 0.00 0.00 0.00 97 1015.3
20260508113243 11 230 0.0 1.6 0.00 0.00 0.00 98 1015.4
20260508112738 11 230 1.6 3.2 0.00 0.00 0.00 98 1015.3
20260508112235 10 230 0.0 0.0 0.00 0.00 0.00 99 1015.0
20260508111731 10 230 0.0 0.0 0.00 0.00 0.00 99 1015.1
20260508111230 10 230 0.0 0.0 0.00 0.00 0.00 99 1014.9
20260508110726 10 229 0.0 0.0 0.00 0.00 0.00 99 1014.9
20260508110223 10 229 0.0 0.0 0.00 0.00 0.00 99 1015.0
20260508105718 10 230 0.0 0.0 0.00 0.00 0.00 99 1014.8
20260508105215 10 230 0.0 0.0 0.00 0.00 0.00 99 1014.7
20260508104712 10 230 0.0 0.0 0.00 0.00 0.00 99 1014.7
20260508104209 10 230 0.0 0.0 0.00 0.00 0.00 99 1014.6
20260508103707 10 230 0.0 0.0 0.00 0.00 0.00 99 1014.5
20260508103203 10 231 1.6 1.6 0.00 0.00 0.00 99 1014.2
20260508102701 10 228 0.0 0.0 0.00 0.00 0.00 99 1014.0
20260508102159 10 228 0.0 0.0 0.00 0.00 0.00 99 1014.1
20260508101655 10 228 0.0 0.0 0.00 0.00 0.00 99 1013.9
20260508101153 10 228 0.0 0.0 0.00 0.00 0.00 99 1013.8
20260508100650 10 228 0.0 0.0 0.00 0.00 0.00 99 1013.6
20260508100148 10 228 0.0 0.0 0.00 0.00 0.00 99 1013.7
20260508095644 10 228 0.0 0.0 0.00 0.00 0.00 99 1013.8
20260508095142 10 228 0.0 0.0 0.00 0.00 0.00 99 1013.6
20260508094638 10 228 0.0 0.0 0.00 0.00 0.00 99 1013.8
20260508094135 10 228 0.0 0.0 0.00 0.00 0.00 99 1013.7
20260508093633 11 228 0.0 0.0 0.00 0.00 0.00 99 1013.7
20260508093130 11 228 0.0 0.0 0.00 0.00 0.00 99 1013.8
20260508092627 11 228 0.0 0.0 0.00 0.00 0.00 99 1013.6
20260508092126 11 228 0.0 0.0 0.00 0.00 0.00 99 1013.5
20260508091622 11 228 0.0 0.0 0.00 0.00 0.00 99 1013.6
20260508091120 11 228 0.0 0.0 0.00 0.00 0.00 99 1013.6
20260508090618 11 228 0.0 0.0 0.00 0.00 0.00 99 1013.4
20260508090115 11 228 0.0 0.0 0.00 0.00 0.00 99 1013.5
20260508085611 11 228 0.0 0.0 0.00 0.00 0.00 99 1013.4
20260508085108 11 228 0.0 0.0 0.00 0.00 0.00 99 1013.2
20260508084604 11 228 0.0 0.0 0.00 0.00 0.00 99 1013.3
20260508084102 11 228 0.0 0.0 0.00 0.00 0.00 99 1013.3
20260508083559 11 228 0.0 0.0 0.00 0.00 0.00 99 1013.3
20260508083056 11 228 0.0 0.0 0.00 0.00 0.00 99 1013.5
20260508082552 11 228 0.0 0.0 0.00 0.00 0.00 99 1013.2
20260508082049 11 228 0.0 0.0 0.00 0.00 0.00 99 1013.2
20260508081546 11 228 0.0 0.0 0.00 0.00 0.00 99 1013.3
20260508081042 11 228 0.0 0.0 0.00 0.00 0.00 99 1013.1
20260508080540 11 228 0.0 0.0 0.00 0.00 0.00 99 1013.0
20260508080037 11 228 0.0 0.0 0.00 0.00 0.00 99 1012.9
20260508075534 11 228 0.0 0.0 0.00 0.00 0.00 99 1012.9
20260508075031 11 228 0.0 0.0 0.00 0.00 0.00 99 1013.1
20260508074529 11 228 0.0 0.0 0.00 0.00 0.00 99 1013.0
20260508074026 11 228 0.0 0.0 0.00 0.00 0.00 99 1013.1
20260508073523 11 228 0.0 0.0 0.00 0.00 0.00 99 1013.2
20260508073021 11 228 0.0 0.0 0.00 0.00 0.00 99 1013.0
20260508072516 11 228 0.0 0.0 0.00 0.00 0.00 99 1012.9
20260508072014 11 228 0.0 1.6 0.00 0.00 0.00 99 1012.8
20260508071511 12 228 0.0 0.0 0.00 0.00 0.00 99 1013.0
20260508071009 12 228 0.0 0.0 0.00 0.00 0.00 99 1012.9
20260508070506 12 228 0.0 0.0 0.00 0.00 0.00 99 1012.8
20260508070005 12 228 0.0 0.0 0.00 0.00 0.00 99 1012.9
20260508065502 12 228 0.0 0.0 0.00 0.00 0.00 99 1012.8
20260508065000 12 228 0.0 0.0 0.00 0.00 0.00 98 1012.6
20260508064457 12 228 0.0 0.0 0.00 0.00 0.00 98 1012.7
20260508063955 12 228 0.0 0.0 0.00 0.00 0.00 98 1012.5
20260508063452 12 228 0.0 0.0 0.00 0.00 0.00 98 1012.6
20260508062950 12 228 0.0 0.0 0.00 0.00 0.00 98 1012.8
20260508062447 12 228 0.0 0.0 0.00 0.00 0.00 98 1012.7
20260508061944 12 228 0.0 0.0 0.00 0.00 0.00 98 1012.9
20260508061442 12 228 0.0 0.0 0.00 0.00 0.00 98 1012.7
20260508060937 12 228 0.0 0.0 0.00 0.00 0.00 98 1012.8
20260508060435 12 228 0.0 0.0 0.00 0.00 0.00 98 1012.8
20260508055931 12 228 0.0 0.0 0.00 0.00 0.00 98 1012.8
20260508055428 12 228 0.0 0.0 0.00 0.00 0.00 98 1012.8
20260508054924 12 228 0.0 0.0 0.00 0.00 0.00 98 1012.9
20260508054422 12 228 0.0 0.0 0.00 0.00 0.00 98 1012.6
20260508053919 12 228 0.0 0.0 0.00 0.00 0.00 98 1012.6
20260508053415 12 228 0.0 0.0 0.00 0.00 0.00 98 1013.0
20260508052913 13 228 0.0 0.0 0.00 0.00 0.00 98 1013.1
20260508052411 13 228 0.0 0.0 0.00 0.00 0.00 98 1012.9
20260508051906 13 228 0.0 0.0 0.00 0.00 0.00 98 1012.7
20260508051403 13 228 0.0 0.0 0.00 0.00 0.00 98 1012.9
20260508050859 13 228 0.0 0.0 0.00 0.00 0.00 98 1012.7
20260508050356 13 228 0.0 0.0 0.00 0.00 0.00 98 1012.7
20260508045851 13 228 0.0 0.0 0.00 0.00 0.00 98 1012.7
20260508045350 13 228 0.0 0.0 0.00 0.00 0.00 98 1012.7
20260508044847 13 228 0.0 0.0 0.00 0.00 0.00 98 1012.6
20260508044343 13 228 0.0 0.0 0.00 0.00 0.00 98 1012.6
20260508043839 13 228 0.0 0.0 0.00 0.00 0.00 98 1012.7
20260508043337 13 228 0.0 0.0 0.00 0.00 0.00 98 1012.5
20260508042833 13 228 0.0 0.0 0.00 0.00 0.00 98 1012.1
20260508042331 13 228 0.0 0.0 0.00 0.00 0.00 98 1012.4
20260508041827 13 228 0.0 0.0 0.00 0.00 0.00 98 1012.3
20260508041324 13 228 0.0 0.0 0.00 0.00 0.00 98 1012.2
20260508040820 13 228 0.0 0.0 0.00 0.00 0.00 98 1012.4
20260508040318 13 228 0.0 0.0 0.00 0.00 0.00 98 1012.4
20260508035815 13 228 0.0 0.0 0.00 0.00 0.00 98 1012.3
20260508035313 13 228 0.0 0.0 0.00 0.00 0.00 97 1012.3
20260508034809 13 228 0.0 0.0 0.00 0.00 0.00 97 1012.4
20260508034306 13 228 0.0 0.0 0.00 0.00 0.00 97 1012.4
20260508033803 14 228 0.0 0.0 0.00 0.00 0.00 97 1012.2
20260508033302 14 228 0.0 0.0 0.00 0.00 0.00 97 1012.0
20260508032759 14 228 0.0 0.0 0.00 0.00 0.00 97 1012.0
20260508032256 14 228 0.0 0.0 0.00 0.00 0.00 97 1012.1
20260508031752 14 228 0.0 0.0 0.00 0.00 0.00 97 1012.1
20260508031249 14 228 0.0 0.0 0.00 0.00 0.00 97 1012.1
20260508030745 14 228 0.0 0.0 0.00 0.00 0.00 97 1012.2
20260508030243 14 228 0.0 0.0 0.00 0.00 0.00 97 1012.2
20260508025739 15 228 0.0 0.0 0.00 0.00 0.00 97 1012.3
20260508025236 15 228 0.0 0.0 0.00 0.00 0.00 97 1012.1
20260508024732 15 228 0.0 0.0 0.00 0.00 0.00 97 1011.9
20260508024229 15 227 0.0 0.0 0.00 0.00 0.00 96 1011.8
20260508023726 15 227 0.0 0.0 0.00 0.00 0.00 96 1011.8
20260508023224 15 228 0.0 0.0 0.00 0.00 0.00 96 1011.8
20260508022719 15 228 0.0 0.0 0.00 0.00 0.00 96 1011.7
20260508022216 15 231 1.6 1.6 0.00 0.00 0.00 96 1011.8
20260508021713 15 226 0.0 0.0 0.00 0.00 0.00 96 1011.8
20260508021208 15 221 0.0 0.0 0.00 0.00 0.00 96 1011.6
20260508020706 15 227 0.0 0.0 0.00 0.00 0.00 96 1011.6
20260508020203 15 228 1.6 1.6 0.00 0.00 0.00 96 1011.3
20260508015700 15 228 0.0 1.6 0.00 0.00 0.00 96 1011.3
20260508015157 15 227 1.6 1.6 0.00 0.00 0.00 96 1011.3
20260508014654 15 226 0.0 1.6 0.00 0.00 0.00 95 1011.2
20260508014149 15 236 3.2 3.2 0.00 0.00 0.00 95 1011.1
20260508013646 15 232 1.6 3.2 0.00 0.00 0.00 96 1010.9
20260508013143 15 226 1.6 1.6 0.00 0.00 0.00 96 1010.9
20260508012641 15 227 0.0 0.0 0.00 0.00 0.00 96 1010.6
20260508012137 15 226 0.0 0.0 0.00 0.00 0.00 96 1010.4
20260508011636 15 215 0.0 0.0 0.00 0.00 0.00 96 1010.6
20260508011133 15 242 3.2 4.8 0.00 0.00 0.00 96 1010.8
20260508010630 15 231 0.0 0.0 0.00 0.00 0.00 96 1010.4
20260508010128 15 255 4.8 8.0 0.00 0.00 0.00 96 1010.3
20260508005624 15 228 1.6 1.6 0.00 0.00 0.00 96 1010.1
20260508005121 15 235 4.8 4.8 0.00 0.00 0.00 96 1010.1
20260508004616 15 227 1.6 1.6 0.00 0.00 0.00 95 1009.6
20260508004113 15 235 3.2 3.2 0.00 0.00 0.00 95 1010.0
20260508003610 15 228 1.6 3.2 0.00 0.00 0.00 94 1009.8
20260508003108 15 244 4.8 8.0 0.00 0.00 0.00 94 1009.7
20260508002604 15 229 3.2 3.2 0.00 0.00 0.00 94 1009.6
20260508002102 15 221 0.0 0.0 0.00 0.00 0.00 94 1009.3
20260508001556 15 227 1.6 1.6 0.00 0.00 0.00 94 1009.2
20260508001053 15 225 3.2 4.8 0.00 0.00 0.00 94 1009.2
20260508000549 16 231 3.2 3.2 0.00 0.00 0.00 94 1008.8
20260508000047 16 237 3.2 3.2 0.00 0.00 0.00 93 1009.0
20260507235543 16 230 1.6 1.6 0.00 0.00 0.00 95 1008.8
20260507235041 16 224 0.0 0.0 0.00 0.00 0.00 95 1008.6
20260507234537 17 251 4.8 4.8 0.00 0.00 0.00 95 1008.3
20260507234033 17 216 0.0 1.6 0.00 0.00 0.00 94 1008.3
20260507233530 17 228 1.6 1.6 0.00 0.00 0.00 93 1008.1
20260507233029 18 219 3.2 4.8 0.00 0.00 0.00 89 1008.1
20260507232525 20 234 4.8 4.8 0.00 0.00 0.00 81 1007.7
20260507232022 21 206 1.6 1.6 0.00 0.00 0.00 78 1007.3
20260507231518 22 228 8.0 12.9 0.00 0.00 0.00 74 1006.8
20260507231016 23 232 1.6 1.6 0.00 0.00 0.00 71 1006.6
20260507230513 23 214 0.0 1.6 0.00 0.00 0.00 70 1006.4
20260507230009 23 195 3.2 3.2 0.00 0.00 0.00 73 1006.3
20260507225504 23 232 0.0 0.0 0.00 0.00 0.00 75 1006.2
20260507225000 23 223 0.0 0.0 0.00 0.00 0.00 76 1006.4
20260507224456 22 216 0.0 0.0 0.00 0.00 0.00 76 1006.1
20260507223953 22 228 0.0 0.0 0.00 0.00 0.00 75 1005.9
20260507223449 22 245 1.6 1.6 0.00 0.00 0.00 76 1006.0
20260507222946 23 222 0.0 0.0 0.00 0.00 0.00 77 1006.0
20260507222443 23 231 0.0 0.0 0.00 0.00 0.00 75 1005.8
20260507221940 23 219 0.0 0.0 0.00 0.00 0.00 74 1005.7
20260507221436 23 217 0.0 0.0 0.00 0.00 0.00 74 1005.9
20260507220932 23 217 0.0 0.0 0.00 0.00 0.00 72 1005.9
20260507220431 23 212 0.0 1.6 0.00 0.00 0.00 72 1005.9
20260507215927 23 216 0.0 0.0 0.00 0.00 0.00 71 1005.5
20260507215423 23 193 1.6 1.6 0.00 0.00 0.00 70 1005.6
20260507214921 23 281 4.8 4.8 0.00 0.00 0.00 70 1005.6
20260507214419 23 212 0.0 0.0 0.00 0.00 0.00 72 1005.6
20260507213914 23 223 0.0 0.0 0.00 0.00 0.00 71 1005.6
20260507213410 23 212 0.0 0.0 0.00 0.00 0.00 71 1005.6
20260507212908 23 210 0.0 0.0 0.00 0.00 0.00 70 1005.6
20260507212403 23 244 1.6 1.6 0.00 0.00 0.00 71 1005.9
20260507211900 23 200 0.0 1.6 0.00 0.00 0.00 71 1005.8
20260507211356 23 216 0.0 0.0 0.00 0.00 0.00 70 1005.5
20260507210854 23 214 0.0 0.0 0.00 0.00 0.00 71 1005.8
20260507210350 24 180 0.0 0.0 0.00 0.00 0.00 72 1005.8
20260507205847 23 233 0.0 1.6 0.00 0.00 0.00 70 1005.5
20260507205344 23 231 1.6 1.6 0.00 0.00 0.00 70 1006.0
20260507204840 24 219 1.6 1.6 0.00 0.00 0.00 69 1005.8
20260507204337 25 210 0.0 0.0 0.00 0.00 0.00 68 1005.8
20260507203835 25 248 4.8 8.0 0.00 0.00 0.00 65 1005.8
20260507203333 25 261 1.6 1.6 0.00 0.00 0.00 64 1005.3
20260507202829 26 220 1.6 1.6 0.00 0.00 0.00 62 1005.6
20260507202325 25 214 0.0 0.0 0.00 0.00 0.00 65 1005.6
20260507201821 25 242 1.6 3.2 0.00 0.00 0.00 65 1005.8
20260507201317 25 195 1.6 1.6 0.00 0.00 0.00 66 1006.1
20260507200813 26 219 0.0 0.0 0.00 0.00 0.00 61 1005.8
20260507200309 26 216 0.0 0.0 0.00 0.00 0.00 62 1006.0
20260507195805 26 218 0.0 1.6 0.00 0.00 0.00 62 1006.0
20260507195305 26 201 0.0 0.0 0.00 0.00 0.00 64 1006.1